Mon, 16 Sep 2019 22:30:56 UTC | login

Information for RPM maven30-apache-commons-validator-1.4.0-7.bootstrap1.8.10.el6.noarch.rpm

ID15133
Namemaven30-apache-commons-validator
Version1.4.0
Release7.bootstrap1.8.10.el6
Epoch
Archnoarch
SummaryApache Commons Validator
DescriptionA common issue when receiving data either electronically or from user input is verifying the integrity of the data. This work is repetitive and becomes even more complicated when different sets of validation rules need to be applied to the same set of data based on locale for example. Error messages may also vary by locale. This package attempts to address some of these issues and speed development and maintenance of validation rules.
Build Time2015-08-20 08:05:35 GMT
Size166456
50955abd04a8e09e63da0f22a2100d65
Buildrootsclo6-maven30-rh-el6-build-3433-5563
Provides
maven30-apache-commons-validator = 1.4.0-7.bootstrap1.8.10.el6
maven30-mvn(commons-validator:commons-validator) = 1.4.0
maven30-mvn(commons-validator:commons-validator:pom:) = 1.4.0
maven30-osgi(org.apache.commons.validator) = 1.4.0
Obsoletes No Obsoletes
Conflicts No Conflicts
Requires
java
maven30-mvn(commons-digester:commons-digester)
maven30-runtime
rh-java-common-mvn(commons-beanutils:commons-beanutils)
rh-java-common-mvn(commons-logging:commons-logging)
rpmlib(CompressedFileNames) <= 3.0.4-1
rpmlib(FileDigests) <= 4.6.0-1
rpmlib(PayloadFilesHavePrefix) <= 4.0-1
rpmlib(PayloadIsXz) <= 5.2-1
rpmlib(VersionedDependencies) <= 3.0.3-1
Files
1 through 7 of 7
Name ascending sort Size
/opt/rh/maven30/root/usr/share/doc/maven30-apache-commons-validator-1.4.04096
/opt/rh/maven30/root/usr/share/doc/maven30-apache-commons-validator-1.4.0/LICENSE.txt11358
/opt/rh/maven30/root/usr/share/doc/maven30-apache-commons-validator-1.4.0/NOTICE.txt178
/opt/rh/maven30/root/usr/share/doc/maven30-apache-commons-validator-1.4.0/RELEASE-NOTES.txt6153
/opt/rh/maven30/root/usr/share/java/apache-commons-validator.jar170105
/opt/rh/maven30/root/usr/share/maven-metadata/apache-commons-validator.xml3258
/opt/rh/maven30/root/usr/share/maven-poms/apache-commons-validator.pom10118
Component of
Page:
1 through 50 of 227 >>>
Buildroot descending sort Created State
sclo6-maven30-rh-el6-build-5528-7353 2015-09-07 22:58:56 expired
sclo6-maven30-rh-el6-build-5527-7353 2015-09-07 22:57:48 expired
sclo6-maven30-rh-el6-build-5526-7353 2015-09-07 22:57:25 expired
sclo6-maven30-rh-el6-build-5525-7353 2015-09-07 22:56:16 expired
sclo6-maven30-rh-el6-build-5524-7352 2015-09-07 22:53:17 expired
sclo6-maven30-rh-el6-build-5523-7352 2015-09-07 22:53:00 expired
sclo6-maven30-rh-el6-build-5522-7352 2015-09-07 22:52:42 expired
sclo6-maven30-rh-el6-build-5521-7352 2015-09-07 22:51:02 expired
sclo6-maven30-rh-el6-build-5520-7352 2015-09-07 22:50:14 expired
sclo6-maven30-rh-el6-build-5519-7352 2015-09-07 22:49:49 expired
sclo6-maven30-rh-el6-build-5518-7352 2015-09-07 22:49:46 expired
sclo6-maven30-rh-el6-build-5517-7351 2015-09-07 22:48:18 expired
sclo6-maven30-rh-el6-build-5516-7351 2015-09-07 22:46:49 expired
sclo6-maven30-rh-el6-build-5515-7351 2015-09-07 22:46:20 expired
sclo6-maven30-rh-el6-build-5514-7351 2015-09-07 22:45:24 expired
sclo6-maven30-rh-el6-build-5513-7351 2015-09-07 22:44:27 expired
sclo6-maven30-rh-el6-build-5512-7350 2015-09-07 22:43:02 expired
sclo6-maven30-rh-el6-build-5511-7350 2015-09-07 22:41:56 expired
sclo6-maven30-rh-el6-build-5510-7350 2015-09-07 22:41:24 expired
sclo6-maven30-rh-el6-build-5509-7349 2015-09-07 22:38:51 expired
sclo6-maven30-rh-el6-build-5508-7349 2015-09-07 22:36:16 expired
sclo6-maven30-rh-el6-build-5507-7349 2015-09-07 22:35:39 expired
sclo6-maven30-rh-el6-build-5506-7349 2015-09-07 22:33:41 expired
sclo6-maven30-rh-el6-build-5505-7349 2015-09-07 22:32:05 expired
sclo6-maven30-rh-el6-build-5504-7349 2015-09-07 22:29:22 expired
sclo6-maven30-rh-el6-build-5503-7349 2015-09-07 22:27:51 expired
sclo6-maven30-rh-el6-build-5502-7349 2015-09-07 22:27:12 expired
sclo6-maven30-rh-el6-build-5501-7349 2015-09-07 22:26:26 expired
sclo6-maven30-rh-el6-build-5500-7349 2015-09-07 22:25:49 expired
sclo6-maven30-rh-el6-build-5499-7348 2015-09-07 22:23:23 expired
sclo6-maven30-rh-el6-build-5498-7348 2015-09-07 22:23:05 expired
sclo6-maven30-rh-el6-build-5497-7348 2015-09-07 22:22:46 expired
sclo6-maven30-rh-el6-build-5495-7348 2015-09-07 22:22:09 expired
sclo6-maven30-rh-el6-build-5494-7348 2015-09-07 22:21:51 expired
sclo6-maven30-rh-el6-build-5493-7348 2015-09-07 22:21:33 expired
sclo6-maven30-rh-el6-build-5492-7348 2015-09-07 22:21:14 expired
sclo6-maven30-rh-el6-build-5491-7348 2015-09-07 22:20:43 expired
sclo6-maven30-rh-el6-build-5490-7348 2015-09-07 22:20:25 expired
sclo6-maven30-rh-el6-build-5489-6656 2015-09-07 22:20:08 expired
sclo6-maven30-rh-el6-build-5488-6656 2015-09-07 22:19:50 expired
sclo6-maven30-rh-el6-build-5487-6656 2015-09-07 22:19:15 expired
sclo6-maven30-rh-el6-build-5486-6656 2015-09-07 22:11:31 expired
sclo6-maven30-rh-el6-build-5485-6656 2015-09-07 22:11:03 expired
sclo6-maven30-rh-el6-build-5484-6656 2015-09-07 22:10:45 expired
sclo6-maven30-rh-el6-build-5483-6656 2015-09-07 22:10:10 expired
sclo6-maven30-rh-el6-build-4385-6576 2015-08-21 19:28:28 expired
sclo6-maven30-rh-el6-build-4379-6576 2015-08-21 19:19:01 expired
sclo6-maven30-rh-el6-build-4312-6568 2015-08-21 11:41:08 expired
sclo6-maven30-rh-el6-build-4305-6563 2015-08-21 11:33:32 expired
sclo6-maven30-rh-el6-build-4300-6556 2015-08-21 11:26:42 expired